EW4052 Weather Reports


time (UTC)temp
C
wind
direction
speed
KPH
gust
KPH
rain 1hr
cm
rain 24hr
cm
rain mn
cm
humidity
%
barometer
mb
20260509111544 7 229 0.0 12.9 0.00 0.00 0.00 58 1002.4
20260509110032 7 224 0.0 11.3 0.00 0.00 0.00 59 1002.0
20260509104531 7 182 0.0 4.8 0.00 0.00 0.00 59 1002.1
20260509103029 7 204 0.0 0.0 0.00 0.00 0.00 57 1002.2
20260509101530 7 203 0.0 3.2 0.00 0.00 0.00 56 1002.3
20260509100024 8 199 0.0 12.9 0.00 0.00 0.00 53 1002.4
20260509094527 9 217 3.2 17.7 0.00 0.00 0.00 50 1002.7
20260509093022 8 196 0.0 12.9 0.00 0.00 0.00 52 1002.7
20260509091521 8 185 3.2 14.5 0.00 0.00 0.00 53 1002.7
20260509090019 8 198 0.0 6.4 0.00 0.00 0.00 52 1002.2
20260509084517 8 208 1.6 8.0 0.00 0.00 0.00 53 1002.5
20260509083015 8 224 0.0 3.2 0.00 0.00 0.00 52 1002.5
20260509081510 10 229 0.0 0.0 0.00 0.00 0.00 50 1002.8
20260509080010 10 229 0.0 4.8 0.00 0.00 0.00 49 1002.9
20260509074508 10 232 0.0 0.0 0.00 0.00 0.00 49 1002.8
20260509073008 10 232 0.0 3.2 0.00 0.00 0.00 51 1002.9
20260509071504 11 234 0.0 6.4 0.00 0.00 0.00 50 1003.0
20260509064554 12 239 4.8 9.7 0.00 0.00 0.00 57 1003.5
20260509063059 13 244 4.8 8.0 0.00 0.00 0.00 55 1003.6
20260509061605 13 244 4.8 9.7 0.00 0.00 0.00 51 1003.5
20260509060048 13 247 6.4 9.7 0.00 0.00 0.00 53 1003.6
20260509054555 13 251 4.8 8.0 0.00 0.00 0.00 50 1003.4
20260509053056 14 253 4.8 8.0 0.00 0.00 0.00 51 1003.5
20260509051547 15 261 8.0 12.9 0.00 0.00 0.00 46 1003.6
20260509050038 15 269 8.0 12.9 0.00 0.00 0.00 46 1003.7
20260509044544 15 260 6.4 11.3 0.00 0.00 0.00 46 1003.7
20260509043036 15 262 6.4 12.9 0.00 0.00 0.00 45 1003.5
20260509041536 15 261 8.0 12.9 0.00 0.00 0.00 45 1003.5
20260509040038 16 259 8.0 11.3 0.00 0.00 0.00 48 1003.5
20260509034537 16 274 8.0 11.3 0.00 0.00 0.00 47 1003.4
20260509033035 16 272 8.0 11.3 0.00 0.00 0.00 48 1003.3
20260509031534 16 272 8.0 12.9 0.00 0.00 0.00 45 1003.2
20260509030033 17 265 4.8 9.7 0.00 0.00 0.00 44 1003.0
20260509024535 17 263 4.8 9.7 0.00 0.00 0.00 43 1002.7
20260509023034 17 276 1.6 6.4 0.00 0.00 0.00 46 1002.5
20260509021532 17 277 0.0 0.0 0.00 0.00 0.00 45 1002.2
20260509020036 18 277 3.2 8.0 0.00 0.00 0.00 43 1002.0
20260509014534 18 275 8.0 16.1 0.00 0.00 0.00 40 1001.9
20260509013030 19 273 6.4 16.1 0.00 0.00 0.00 38 1001.7
20260509011530 20 290 11.3 30.6 0.00 0.00 0.00 36 1001.6
20260509010028 20 243 9.7 17.7 0.00 0.00 0.00 39 1001.4
20260509004537 21 230 11.3 27.4 0.00 0.00 0.00 31 1001.4
20260509003027 21 244 17.7 25.7 0.00 0.00 0.00 34 1001.5
20260509001526 21 216 8.0 19.3 0.00 0.00 0.00 27 1001.3
20260509000024 22 234 12.9 30.6 0.00 0.00 0.00 26 1001.5
20260508234524 22 219 20.9 29.0 0.00 0.00 0.00 28 1001.6
20260508233023 22 213 16.1 32.2 0.00 0.00 0.00 24 1001.6
20260508231520 22 237 14.5 27.4 0.00 0.00 0.00 29 1001.6
20260508230018 22 226 6.4 27.4 0.00 0.00 0.00 26 1001.8
20260508224521 22 232 11.3 22.5 0.00 0.00 0.00 32 1001.9
20260508223033 22 223 11.3 29.0 0.00 0.00 0.00 25 1002.1
20260508221514 21 240 12.9 30.6 0.00 0.00 0.00 33 1002.2
20260508220012 21 239 9.7 22.5 0.00 0.00 0.00 26 1002.4
20260508214510 21 252 12.9 32.2 0.00 0.00 0.00 30 1002.5
20260508213008 22 244 14.5 29.0 0.00 0.00 0.00 23 1002.6
20260508211507 21 223 16.1 35.4 0.00 0.00 0.00 26 1002.9
20260508210005 22 255 14.5 32.2 0.00 0.00 0.00 27 1003.0
20260508204504 22 242 8.0 35.4 0.00 0.00 0.00 26 1003.3
20260508203119 21 236 11.3 29.0 0.00 0.00 0.00 25 1003.5
20260508201558 22 261 20.9 35.4 0.00 0.00 0.00 30 1003.8
20260508194555 21 223 11.3 27.4 0.00 0.00 0.00 23 1004.3
20260508193114 21 212 14.5 32.2 0.00 0.00 0.00 25 1004.5
20260508191551 22 240 9.7 29.0 0.00 0.00 0.00 26 1004.8
20260508190045 21 267 3.2 17.7 0.00 0.00 0.00 30 1004.8
20260508184544 21 234 16.1 33.8 0.00 0.00 0.00 24 1005.3
20260508183042 20 221 6.4 27.4 0.00 0.00 0.00 24 1005.4
20260508181543 20 240 4.8 22.5 0.00 0.00 0.00 27 1005.7
20260508180038 20 243 9.7 27.4 0.00 0.00 0.00 25 1005.9
20260508174538 20 251 17.7 29.0 0.00 0.00 0.00 30 1006.1
20260508173032 20 250 16.1 27.4 0.00 0.00 0.00 25 1006.5
20260508171536 20 242 11.3 19.3 0.00 0.00 0.00 27 1006.7
20260508170028 20 229 14.5 27.4 0.00 0.00 0.00 22 1007.0
20260508164524 18 235 9.7 17.7 0.00 0.00 0.00 27 1007.1
20260508163021 18 240 11.3 20.9 0.00 0.00 0.00 27 1007.3
20260508161523 18 244 11.3 24.1 0.00 0.00 0.00 27 1007.6
20260508160017 17 241 11.3 22.5 0.00 0.00 0.00 29 1007.8
20260508154515 18 233 11.3 17.7 0.00 0.00 0.00 30 1007.9
20260508153012 17 230 4.8 22.5 0.00 0.00 0.00 30 1008.1
20260508151510 17 232 8.0 16.1 0.00 0.00 0.00 32 1008.3
20260508150010 16 232 0.0 9.7 0.00 0.00 0.00 35 1008.4
20260508144600 15 173 1.6 11.3 0.00 0.00 0.00 36 1008.5
20260508143107 13 203 0.0 11.3 0.00 0.00 0.00 36 1008.7
20260508141552 12 224 0.0 11.3 0.00 0.00 0.00 40 1009.1
20260508140049 11 224 0.0 8.0 0.00 0.00 0.00 43 1009.0
20260508134545 11 219 0.0 6.4 0.00 0.00 0.00 44 1009.1
20260508133042 10 215 0.0 6.4 0.00 0.00 0.00 42 1009.2
20260508131541 10 212 0.0 4.8 0.00 0.00 0.00 47 1009.3
20260508130034 8 298 0.0 0.0 0.00 0.00 0.00 52 1009.2
20260508124530 8 300 0.0 0.0 0.00 0.00 0.00 52 1009.3
20260508123029 7 300 0.0 0.0 0.00 0.00 0.00 54 1009.2
20260508121526 6 300 0.0 0.0 0.00 0.00 0.00 57 1009.0
20260508120033 5 300 0.0 0.0 0.00 0.00 0.00 56 1009.0
20260508114524 4 300 0.0 0.0 0.00 0.00 0.00 58 1008.9
20260508113023 5 300 0.0 0.0 0.00 0.00 0.00 57 1008.9